GW6389 Weather Reports


Display with metric or nautical units.
time (UTC)temp
F
wind
direction
speed
MPH
gust
MPH
rain 1hr
in
rain 24hr
in
rain mn
in
humidity
%
barometer
mb
20260503003515 65 106 2.0 6.0 0.00 0.00 0.00 34 1015.3
20260503003114 65 55 5.0 6.0 0.00 0.00 0.00 33 1015.3
20260503002525 66 42 2.0 5.0 0.00 0.00 0.00 32 1015.3
20260503002031 67 31 1.0 6.0 0.00 0.00 0.00 33 1015.4
20260503001646 67 63 1.0 6.0 0.00 0.00 0.00 32 1015.5
20260503001025 67 67 1.0 6.0 0.00 0.00 0.00 34 1015.4
20260503000529 66 301 1.0 6.0 0.00 0.00 0.00 32 1015.4
20260503000148 66 351 0.0 5.0 0.00 0.00 0.00 33 1015.5
20260502235538 66 242 1.0 7.0 0.00 0.00 0.00 33 1015.6
20260502235016 66 310 1.0 8.0 0.00 0.00 0.00 34 1015.6
20260502234628 66 269 3.0 8.0 0.00 0.00 0.00 35 1015.6
20260502234019 66 329 2.0 6.0 0.00 0.00 0.00 34 1015.6
20260502233537 66 352 0.0 8.0 0.00 0.00 0.00 33 1015.7
20260502233134 66 40 3.0 8.0 0.00 0.00 0.00 34 1015.8
20260502232544 66 14 2.0 8.0 0.00 0.00 0.00 34 1015.9
20260502232038 65 30 4.0 10.0 0.00 0.00 0.00 33 1015.9
20260502231634 65 352 7.0 10.0 0.00 0.00 0.00 34 1016.0
20260502231020 66 352 5.0 11.0 0.00 0.00 0.00 34 1015.9
20260502230522 66 5 4.0 11.0 0.00 0.00 0.00 34 1016.1
20260502230144 66 319 5.0 10.0 0.00 0.00 0.00 34 1016.1
20260502225531 66 360 3.0 11.0 0.00 0.00 0.00 33 1016.0
20260502225041 66 325 7.0 11.0 0.00 0.00 0.00 32 1016.1
20260502224624 66 300 3.0 5.0 0.00 0.00 0.00 34 1016.1
20260502224031 65 53 1.0 2.0 0.00 0.00 0.00 35 1016.2
20260502223527 65 113 0.0 7.0 0.00 0.00 0.00 35 1016.4
20260502223046 65 126 2.0 9.0 0.00 0.00 0.00 35 1016.5
20260502222533 65 82 3.0 9.0 0.00 0.00 0.00 34 1016.4
20260502222024 66 329 4.0 13.0 0.00 0.00 0.00 34 1016.4
20260502221626 67 346 8.0 13.0 0.00 0.00 0.00 34 1016.3
20260502221020 67 345 6.0 16.0 0.00 0.00 0.00 34 1016.5
20260502220537 67 22 2.0 16.0 0.00 0.00 0.00 34 1016.5
20260502220149 67 317 6.0 11.0 0.00 0.00 0.00 34 1016.6
20260502215519 66 51 3.0 10.0 0.00 0.00 0.00 33 1016.6
20260502215028 66 121 2.0 10.0 0.00 0.00 0.00 35 1016.7
20260502214641 65 352 2.0 11.0 0.00 0.00 0.00 35 1016.9
20260502214038 65 341 6.0 11.0 0.00 0.00 0.00 35 1017.1
20260502213524 65 307 1.0 8.0 0.00 0.00 0.00 35 1017.1
20260502213140 65 302 5.0 14.0 0.00 0.00 0.00 36 1017.2
20260502212534 65 317 11.0 14.0 0.00 0.00 0.00 34 1017.1
20260502212021 65 275 2.0 10.0 0.00 0.00 0.00 35 1017.3
20260502211632 65 284 2.0 10.0 0.00 0.00 0.00 34 1017.2
20260502211038 65 343 6.0 10.0 0.00 0.00 0.00 34 1017.3
20260502210538 65 302 3.0 12.0 0.00 0.00 0.00 34 1017.3
20260502210143 65 279 5.0 13.0 0.00 0.00 0.00 34 1017.4
20260502205526 65 323 6.0 13.0 0.00 0.00 0.00 35 1017.4
20260502205037 64 75 2.0 11.0 0.00 0.00 0.00 36 1017.6
20260502204627 64 333 5.0 13.0 0.00 0.00 0.00 35 1017.7
20260502204041 64 352 8.0 13.0 0.00 0.00 0.00 36 1017.7
20260502203531 63 337 3.0 12.0 0.00 0.00 0.00 37 1017.8
20260502203110 63 298 6.0 13.0 0.00 0.00 0.00 36 1017.9
20260502202519 64 348 4.0 12.0 0.00 0.00 0.00 36 1017.8
20260502202030 64 108 7.0 11.0 0.00 0.00 0.00 35 1018.0
20260502201631 64 332 7.0 11.0 0.00 0.00 0.00 35 1018.0
20260502201029 64 328 5.0 11.0 0.00 0.00 0.00 36 1018.1
20260502200521 64 5 4.0 12.0 0.00 0.00 0.00 34 1018.2
20260502200140 64 322 7.0 17.0 0.00 0.00 0.00 35 1018.1
20260502195531 64 293 9.0 17.0 0.00 0.00 0.00 35 1018.3
20260502195045 64 346 4.0 12.0 0.00 0.00 0.00 37 1018.2
20260502194551 64 352 2.0 13.0 0.00 0.00 0.00 34 1018.2
20260502194021 64 76 6.0 13.0 0.00 0.00 0.00 34 1018.4
20260502193543 64 345 5.0 16.0 0.00 0.00 0.00 37 1018.4
20260502193117 64 360 9.0 16.0 0.00 0.00 0.00 36 1018.4
20260502192539 64 304 5.0 11.0 0.00 0.00 0.00 35 1018.5
20260502192030 64 40 4.0 14.0 0.00 0.00 0.00 36 1018.5
20260502191612 64 352 6.0 14.0 0.00 0.00 0.00 37 1018.5
20260502191031 64 11 7.0 11.0 0.00 0.00 0.00 39 1018.6
20260502190526 64 30 6.0 14.0 0.00 0.00 0.00 38 1018.6
20260502190125 64 11 8.0 15.0 0.00 0.00 0.00 36 1018.8
20260502185537 63 9 7.0 15.0 0.00 0.00 0.00 36 1018.6
20260502185028 63 21 6.0 14.0 0.00 0.00 0.00 35 1018.8
20260502184558 63 36 6.0 14.0 0.00 0.00 0.00 39 1018.6
20260502184020 63 5 10.0 15.0 0.00 0.00 0.00 36 1018.8
20260502183538 63 331 8.0 15.0 0.00 0.00 0.00 37 1018.7
20260502183114 63 352 8.0 15.0 0.00 0.00 0.00 39 1018.9
20260502182523 63 296 9.0 17.0 0.00 0.00 0.00 38 1018.8
20260502182018 63 309 7.0 17.0 0.00 0.00 0.00 37 1018.8
20260502181623 63 321 7.0 14.0 0.00 0.00 0.00 38 1018.7
20260502181032 63 38 9.0 14.0 0.00 0.00 0.00 37 1018.8
20260502180516 63 39 8.0 16.0 0.00 0.00 0.00 37 1018.9
20260502170520 62 321 8.0 14.0 0.00 0.00 0.00 41 1019.1
20260502164031 62 71 7.0 11.0 0.00 0.00 0.00 42 1019.0
20260502163517 62 338 6.0 11.0 0.00 0.00 0.00 42 1019.1
20260502163056 61 14 5.0 10.0 0.00 0.00 0.00 41 1019.2
20260502162538 61 52 5.0 9.0 0.00 0.00 0.00 40 1019.1
20260502162024 61 318 4.0 9.0 0.00 0.00 0.00 42 1019.1
20260502161627 61 49 2.0 11.0 0.00 0.00 0.00 42 1019.0
20260502161042 61 319 7.0 11.0 0.00 0.00 0.00 41 1019.1
20260502160532 60 43 4.0 11.0 0.00 0.00 0.00 41 1019.1
20260502160130 60 338 2.0 11.0 0.00 0.00 0.00 42 1019.0
20260502152048 58 60 2.0 8.0 0.00 0.00 0.00 44 1018.8
20260502151629 58 17 2.0 8.0 0.00 0.00 0.00 44 1018.8
20260502151020 58 5 2.0 6.0 0.00 0.00 0.00 45 1018.8
20260502150520 58 5 1.0 6.0 0.00 0.00 0.00 44 1018.7
20260502150108 57 40 3.0 6.0 0.00 0.00 0.00 45 1018.7
20260502140114 49 327 3.0 5.0 0.00 0.00 0.00 62 1018.7
20260502130537 44 332 4.0 9.0 0.00 0.00 0.00 66 1018.5
20260502130130 43 317 4.0 9.0 0.00 0.00 0.00 66 1018.3
20260502123531 43 305 2.0 4.0 0.00 0.00 0.00 66 1018.0
20260502123117 43 315 2.0 3.0 0.00 0.00 0.00 65 1017.8
20260502122532 43 316 1.0 6.0 0.00 0.00 0.00 65 1017.9
20260502122035 43 318 2.0 6.0 0.00 0.00 0.00 64 1017.8
20260502121641 44 300 2.0 7.0 0.00 0.00 0.00 64 1018.0
20260502121026 45 304 3.0 5.0 0.00 0.00 0.00 61 1017.9
20260502120542 43 18 1.0 4.0 0.00 0.00 0.00 64 1017.7
20260502120137 43 327 1.0 5.0 0.00 0.00 0.00 64 1017.6
20260502115519 43 296 2.0 5.0 0.00 0.00 0.00 62 1017.6
20260502115028 44 307 2.0 4.0 0.00 0.00 0.00 61 1017.4
20260502114639 45 327 2.0 4.0 0.00 0.00 0.00 59 1017.3
20260502114027 45 352 1.0 4.0 0.00 0.00 0.00 59 1017.1
20260502113536 46 317 2.0 6.0 0.00 0.00 0.00 58 1017.3
20260502113131 47 312 4.0 6.0 0.00 0.00 0.00 57 1017.0
20260502112538 48 21 3.0 6.0 0.00 0.00 0.00 55 1016.8
20260502112018 48 59 4.0 9.0 0.00 0.00 0.00 54 1016.6
20260502111641 48 49 3.0 9.0 0.00 0.00 0.00 55 1016.7
20260502111030 47 50 4.0 9.0 0.00 0.00 0.00 55 1016.7
20260502110522 47 22 5.0 9.0 0.00 0.00 0.00 54 1016.6
20260502110144 48 36 4.0 9.0 0.00 0.00 0.00 54 1016.4
20260502105520 47 67 4.0 9.0 0.00 0.00 0.00 55 1016.3
20260502105040 46 74 4.0 9.0 0.00 0.00 0.00 55 1016.2
20260502104640 46 86 4.0 11.0 0.00 0.00 0.00 55 1016.1
20260502104028 47 40 4.0 11.0 0.00 0.00 0.00 54 1016.1
20260502103519 47 25 5.0 11.0 0.00 0.00 0.00 54 1016.1
20260502103118 47 51 4.0 10.0 0.00 0.00 0.00 55 1016.1
20260502102527 45 44 3.0 7.0 0.00 0.00 0.00 58 1016.0
20260502102037 44 11 2.0 4.0 0.00 0.00 0.00 59 1016.0
20260502101638 44 304 2.0 4.0 0.00 0.00 0.00 59 1016.0
20260502101019 45 305 3.0 5.0 0.00 0.00 0.00 58 1015.9
20260502100530 45 297 3.0 5.0 0.00 0.00 0.00 55 1015.8
20260502100144 46 317 3.0 5.0 0.00 0.00 0.00 55 1015.9
20260502091036 43 343 3.0 10.0 0.00 0.00 0.00 59 1015.3
20260502090541 44 300 7.0 11.0 0.00 0.00 0.00 59 1015.3
20260502090147 46 316 6.0 11.0 0.00 0.00 0.00 53 1015.4
20260502071044 41 345 1.0 4.0 0.00 0.00 0.00 64 1014.4
20260502070534 41 293 1.0 3.0 0.00 0.00 0.00 64 1014.2
20260502070202 40 286 0.0 2.0 0.00 0.00 0.00 69 1014.1
20260502065540 41 276 1.0 2.0 0.00 0.00 0.00 67 1014.1
20260502065042 41 276 1.0 3.0 0.00 0.00 0.00 66 1014.2
20260502064654 42 276 1.0 3.0 0.00 0.00 0.00 60 1014.2
20260502064037 43 277 2.0 3.0 0.00 0.00 0.00 57 1014.1
20260502063517 42 254 2.0 3.0 0.00 0.00 0.00 59 1014.1
20260502063150 42 273 2.0 3.0 0.00 0.00 0.00 61 1014.2
20260502062550 42 284 1.0 3.0 0.00 0.00 0.00 61 1014.3
20260502062029 43 273 2.0 3.0 0.00 0.00 0.00 57 1014.3
20260502061631 43 273 2.0 3.0 0.00 0.00 0.00 57 1014.3
20260502061048 43 282 1.0 4.0 0.00 0.00 0.00 59 1014.2
20260502060545 43 264 3.0 4.0 0.00 0.00 0.00 58 1014.2
20260502060126 44 280 1.0 3.0 0.00 0.00 0.00 60 1014.1
20260502055533 45 279 2.0 3.0 0.00 0.00 0.00 57 1014.0
20260502055019 45 271 3.0 3.0 0.00 0.00 0.00 55 1014.1
20260502054655 46 274 2.0 3.0 0.00 0.00 0.00 54 1014.0
20260502054027 46 268 1.0 3.0 0.00 0.00 0.00 55 1014.0
20260502053537 46 273 2.0 3.0 0.00 0.00 0.00 57 1014.1
20260502053157 46 284 0.0 0.0 0.00 0.00 0.00 53 1014.0
20260502052529 46 284 0.0 5.0 0.00 0.00 0.00 57 1014.2
20260502052018 47 284 0.0 5.0 0.00 0.00 0.00 59 1014.2
20260502051641 47 291 0.0 1.0 0.00 0.00 0.00 58 1014.2
20260502051033 48 291 0.0 3.0 0.00 0.00 0.00 50 1014.1
20260502050535 50 304 0.0 1.0 0.00 0.00 0.00 45 1014.1
20260502050154 50 290 0.0 0.0 0.00 0.00 0.00 44 1014.0
20260502045530 50 290 0.0 0.0 0.00 0.00 0.00 45 1014.1
20260502045028 51 315 0.0 0.0 0.00 0.00 0.00 53 1014.1
20260502044637 51 347 0.0 4.0 0.00 0.00 0.00 52 1014.0
20260502044021 51 347 0.0 4.0 0.00 0.00 0.00 47 1014.0
20260502043535 52 347 0.0 4.0 0.00 0.00 0.00 44 1014.1
20260502043137 52 347 1.0 4.0 0.00 0.00 0.00 45 1014.1
20260502042547 53 274 1.0 2.0 0.00 0.00 0.00 44 1014.1
20260502042036 53 274 0.0 2.0 0.00 0.00 0.00 47 1014.0
20260502041611 54 274 0.0 3.0 0.00 0.00 0.00 43 1014.1
20260502041032 55 273 0.0 5.0 0.00 0.00 0.00 41 1014.0
20260502040525 57 321 1.0 5.0 0.00 0.00 0.00 40 1014.0
20260502040126 57 281 0.0 5.0 0.00 0.00 0.00 35 1013.9
20260502035525 59 311 2.0 5.0 0.00 0.00 0.00 35 1014.1
20260502035023 59 192 0.0 4.0 0.00 0.00 0.00 32 1013.8
20260502034610 58 319 0.0 8.0 0.00 0.00 0.00 33 1013.8
20260502034034 55 321 5.0 8.0 0.00 0.00 0.00 41 1013.8
20260502033516 55 152 1.0 5.0 0.00 0.00 0.00 37 1013.6
20260502033121 54 165 3.0 6.0 0.00 0.00 0.00 41 1013.7
20260502032522 53 234 2.0 6.0 0.00 0.00 0.00 48 1013.8
20260502032016 55 277 3.0 6.0 0.00 0.00 0.00 45 1013.9
20260502031619 56 220 0.0 0.0 0.00 0.00 0.00 37 1013.6
20260502031025 56 220 0.0 0.0 0.00 0.00 0.00 35 1013.6
20260502030543 57 220 0.0 0.0 0.00 0.00 0.00 40 1013.6
20260502030109 58 220 0.0 0.0 0.00 0.00 0.00 50 1013.6
20260502025543 59 220 0.0 1.0 0.00 0.00 0.00 34 1013.5
20260502025039 61 220 0.0 2.0 0.00 0.00 0.00 35 1013.3
20260502024625 62 161 1.0 2.0 0.00 0.00 0.00 29 1013.3
20260502024037 63 150 0.0 2.0 0.00 0.00 0.00 29 1013.2
20260502023540 63 144 0.0 2.0 0.00 0.00 0.00 29 1013.2
20260502023125 63 262 0.0 2.0 0.00 0.00 0.00 29 1013.1
20260502022538 64 262 0.0 2.0 0.00 0.00 0.00 29 1013.1
20260502022026 65 262 1.0 2.0 0.00 0.00 0.00 29 1013.1
20260502021617 67 288 0.0 2.0 0.00 0.00 0.00 28 1013.1
20260502021023 67 317 0.0 3.0 0.00 0.00 0.00 26 1013.1
20260502020519 68 317 0.0 3.0 0.00 0.00 0.00 25 1013.1
20260502020127 69 345 0.0 2.0 0.00 0.00 0.00 25 1013.1
20260502015536 70 313 1.0 3.0 0.00 0.00 0.00 24 1013.1
20260502015038 70 324 1.0 2.0 0.00 0.00 0.00 23 1013.1
20260502014633 70 332 0.0 5.0 0.00 0.00 0.00 23 1013.1
20260502014032 71 316 2.0 5.0 0.00 0.00 0.00 22 1013.1
20260502013543 72 299 1.0 4.0 0.00 0.00 0.00 24 1013.1
20260502013139 72 306 2.0 4.0 0.00 0.00 0.00 23 1013.2
20260502012531 73 300 2.0 7.0 0.00 0.00 0.00 24 1013.3
20260502012030 73 314 3.0 8.0 0.00 0.00 0.00 20 1013.2
20260502011723 74 290 5.0 8.0 0.00 0.00 0.00 23 1013.2
20260502011043 74 323 3.0 9.0 0.00 0.00 0.00 19 1013.2
20260502010519 74 318 5.0 10.0 0.00 0.00 0.00 19 1013.2
20260502010109 74 298 5.0 12.0 0.00 0.00 0.00 19 1013.3
20260502005539 74 304 7.0 12.0 0.00 0.00 0.00 19 1013.4
20260502005021 74 323 5.0 10.0 0.00 0.00 0.00 20 1013.3
20260502004612 74 344 5.0 11.0 0.00 0.00 0.00 19 1013.5
20260502004044 75 350 7.0 11.0 0.00 0.00 0.00 19 1013.5